Tracking 20083 objects as of 11-Dec-2019
HD Live streaming from Space Station
objects crossing your sky now

COSMOS 2251 DEB

Track COSMOS 2251 DEB now!
10-day predictions


NORAD ID: 38065
Int'l Code: 1993-036BRX
Perigee: 718.1 km
Apogee: 745.0 km
Inclination: 74.0 °
Period: 99.3 minutes
Semi major axis: 7102 km
RCS: 0.0159 m2 (small)
Launch date: June 16, 1993
Source: Commonwealth of Independent States (former USSR) (CIS)
Launch site: PLESETSK MISSILE AND SPACE COMPLEX (PKMTR)

Note: This is SATELLITE DEBRIS
aabbcc
Your satellite tracking list
Your tracking list is empty




NASA's NSSDC Master Catalog

Two Line Element Set (TLE):
1 38065U 93036BRX 19344.48514068 +.00000936 +00000-0 +24620-3 0  9995
2 38065 074.0304 261.5164 0018934 155.2153 321.8165 14.50384564401803
Source of the keplerian elements: AFSPC